Satellite: INMARSAT 3-F1
Catalog number: 23839
Epoch time:      103015.66256007
Element set:     850 
Inclination:        0.0480 deg
RA of node:        13.1970 deg
Eccentricity:    0.0005506
Arg of perigee:   300.1486 deg
Mean anomaly:     103.7184 deg
Mean motion:    1.00273536 rev/day
Decay rate:    3.4999E-007 rev/day^2
Epoch rev:            2487
Checksum:              384

Satellite: ASTRA 1F
Catalog number: 23842
Epoch time:      103013.00000000
Element set:     556 
Inclination:        0.0122 deg
RA of node:       319.8851 deg
Eccentricity:    0.0002995
Arg of perigee:    65.1991 deg
Mean anomaly:     106.1837 deg
Mean motion:    1.00273184 rev/day
Decay rate:    1.3899E-006 rev/day^2
Epoch rev:            2475
Checksum:              254

Satellite: JAS 2
Catalog number: 24278
Epoch time:      103015.89128264
Element set:     554 
Inclination:       98.5278 deg
RA of node:       171.6898 deg
Eccentricity:    0.0350273
Arg of perigee:   303.9135 deg
Mean anomaly:      52.9154 deg
Mean motion:   13.52869339 rev/day
Decay rate:    3.7999E-007 rev/day^2
Epoch rev:           31675
Checksum:              359

Satellite: UNAMSAT
Catalog number: 24305
Epoch time:      103017.21531561
Element set:     655 
Inclination:       82.9363 deg
RA of node:       286.7112 deg
Eccentricity:    0.0029094
Arg of perigee:   295.9635 deg
Mean anomaly:      63.8513 deg
Mean motion:   13.73447196 rev/day
Decay rate:    2.0499E-006 rev/day^2
Epoch rev:           31904
Checksum:              312

Satellite: INMARSAT 3-F2
Catalog number: 24307
Epoch time:      103017.17607640
Element set:     72 
Inclination:        0.0559 deg
RA of node:        16.1481 deg
Eccentricity:    0.0005610
Arg of perigee:   281.6129 deg
Mean anomaly:     226.2895 deg
Mean motion:    1.00271515 rev/day
Decay rate:   -1.0700E-006 rev/day^2
Epoch rev:            2329
Checksum:              251

Satellite: HOT BIRD 2
Catalog number: 24665
Epoch time:      103013.80550721
Element set:     339 
Inclination:        0.0284 deg
RA of node:       278.7326 deg
Eccentricity:    0.0008090
Arg of perigee:    44.5257 deg
Mean anomaly:      92.5403 deg
Mean motion:    1.00273403 rev/day
Decay rate:    1.0700E-006 rev/day^2
Epoch rev:            2290
Checksum:              247

Satellite: INMARSAT 3-F3
Catalog number: 24674
Epoch time:      103016.38370587
Element set:     970 
Inclination:        0.0598 deg
RA of node:       309.8373 deg
Eccentricity:    0.0004190
Arg of perigee:   345.5653 deg
Mean anomaly:     136.2376 deg
Mean motion:    1.00270487 rev/day
Decay rate:    5.6999E-007 rev/day^2
Epoch rev:            2225
Checksum:              435

Satellite: GOES 10
Catalog number: 24786
Epoch time:      103017.73348087
Element set:     507 
Inclination:        0.0624 deg
RA of node:       110.4217 deg
Eccentricity:    0.0003191
Arg of perigee:   210.7868 deg
Mean anomaly:     284.4845 deg
Mean motion:    1.00281221 rev/day
Decay rate:    1.0200E-006 rev/day^2
Epoch rev:            2101
Checksum:              240

Satellite: INMARSAT 3-F4
Catalog number: 24819
Epoch time:      103017.04658566
Element set:     866 
Inclination:        0.0607 deg
RA of node:       298.2415 deg
Eccentricity:    0.0003813
Arg of perigee:   357.5140 deg
Mean anomaly:     143.0893 deg
Mean motion:    1.00273348 rev/day
Decay rate:   -2.6899E-006 rev/day^2
Epoch rev:            2068
Checksum:              310

Satellite: FENGYUN 2A
Catalog number: 24834
Epoch time:      103008.98957809
Element set:     942 
Inclination:        2.4721 deg
RA of node:        88.7751 deg
Eccentricity:    0.0002867
Arg of perigee:   256.9049 deg
Mean anomaly:     204.9633 deg
Mean motion:    1.00265824 rev/day
Decay rate:   -1.8800E-006 rev/day^2
Epoch rev:            2043
Checksum:              311

Satellite: HOT BIRD 3
Catalog number: 24931
Epoch time:      103013.80550721
Element set:     420 
Inclination:        0.0673 deg
RA of node:       233.2523 deg
Eccentricity:    0.0010443
Arg of perigee:   100.7649 deg
Mean anomaly:      81.7511 deg
Mean motion:    1.00274844 rev/day
Decay rate:    1.0700E-006 rev/day^2
Epoch rev:            1972
Checksum:              232

Satellite: METEOSAT 7
Catalog number: 24932
Epoch time:      103017.84274885
Element set:     230 
Inclination:        0.1432 deg
RA of node:        48.2973 deg
Eccentricity:    0.0001404
Arg of perigee:   233.8444 deg
Mean anomaly:     138.0308 deg
Mean motion:    1.00273924 rev/day
Decay rate:    1.1000E-007 rev/day^2
Epoch rev:            1970
Checksum:              255

Satellite: ASTRA 1G
Catalog number: 25071
Epoch time:      103013.00000000
Element set:     387 
Inclination:        0.0122 deg
RA of node:       319.8851 deg
Eccentricity:    0.0002995
Arg of perigee:    65.1991 deg
Mean anomaly:     106.1633 deg
Mean motion:    1.00273184 rev/day
Decay rate:    1.3899E-006 rev/day^2
Epoch rev:            1877
Checksum:              251

Satellite: INMARSAT 3-F5
Catalog number: 25153
Epoch time:      103017.05055557
Element set:     833 
Inclination:        0.4459 deg
RA of node:       357.4673 deg
Eccentricity:    0.0003810
Arg of perigee:   313.0559 deg
Mean anomaly:     208.7476 deg
Mean motion:    1.00276883 rev/day
Decay rate:    1.5800E-006 rev/day^2
Epoch rev:            1817
Checksum:              292

Satellite: HOT BIRD 4
Catalog number: 25237
Epoch time:      103013.80550721
Element set:     325 
Inclination:        0.0242 deg
RA of node:       116.4838 deg
Eccentricity:    0.0007929
Arg of perigee:   193.6371 deg
Mean anomaly:     105.7449 deg
Mean motion:    1.00276095 rev/day
Decay rate:    1.0700E-006 rev/day^2
Epoch rev:            1818
Checksum:              265

Satellite: NOAA 15
Catalog number: 25338
Epoch time:      103017.98447004
Element set:     972 
Inclination:       98.5512 deg
RA of node:        40.9906 deg
Eccentricity:    0.0011313
Arg of perigee:    51.6396 deg
Mean anomaly:     308.5800 deg
Mean motion:   14.24229522 rev/day
Decay rate:    2.6600E-006 rev/day^2
Epoch rev:           24330
Checksum:              286

Satellite: RESURS O1-N4
Catalog number: 25394
Epoch time:      103018.22484027
Element set:     426 
Inclination:       98.6369 deg
RA of node:        96.7251 deg
Eccentricity:    0.0001404
Arg of perigee:   164.0785 deg
Mean anomaly:     196.0437 deg
Mean motion:   14.23865824 rev/day
Decay rate:    2.3400E-006 rev/day^2
Epoch rev:           23507
Checksum:              307

Satellite: TMSAT
Catalog number: 25396
Epoch time:      103016.42978806
Element set:     814 
Inclination:       98.6319 deg
RA of node:        94.1746 deg
Eccentricity:    0.0002082
Arg of perigee:   210.1678 deg
Mean anomaly:     149.9382 deg
Mean motion:   14.23499736 rev/day
Decay rate:   -4.3000E-007 rev/day^2
Epoch rev:           23481
Checksum:              322

Satellite: TECHSAT 1B
Catalog number: 25397
Epoch time:      103015.94654005
Element set:     134 
Inclination:       98.6280 deg
RA of node:        92.6275 deg
Eccentricity:    0.0000515
Arg of perigee:   208.9633 deg
Mean anomaly:     151.1516 deg
Mean motion:   14.22951279 rev/day
Decay rate:    1.1099E-006 rev/day^2
Epoch rev:           23471
Checksum:              298

Satellite: ASTRA 2A
Catalog number: 25462
Epoch time:      103013.00000000
Element set:     528 
Inclination:        0.0385 deg
RA of node:       308.7109 deg
Eccentricity:    0.0004824
Arg of perigee:   280.8620 deg
Mean anomaly:     270.7162 deg
Mean motion:    1.00272094 rev/day
Decay rate:    1.6899E-006 rev/day^2
Epoch rev:            1607
Checksum:              243

Satellite: EUTELSAT W2
Catalog number: 25491
Epoch time:      103015.86810854
Element set:     564 
Inclination:        0.0572 deg
RA of node:       107.9262 deg
Eccentricity:    0.0003740
Arg of perigee:   184.8614 deg
Mean anomaly:     150.6403 deg
Mean motion:    1.00275257 rev/day
Decay rate:    1.2299E-006 rev/day^2
Epoch rev:            1571
Checksum:              274

Satellite: HOT BIRD 5
Catalog number: 25495
Epoch time:      103015.13542825
Element set:     492 
Inclination:        0.0349 deg
RA of node:       198.9702 deg
Eccentricity:    0.0009463
Arg of perigee:    93.1649 deg
Mean anomaly:     263.9846 deg
Mean motion:    1.00277875 rev/day
Decay rate:    1.7500E-006 rev/day^2
Epoch rev:            1567
Checksum:              312

Satellite: SEDSAT 1
Catalog number: 25509
Epoch time:      103018.17992399
Element set:     759 
Inclination:       31.4330 deg
RA of node:       330.4229 deg
Eccentricity:    0.0358030
Arg of perigee:    28.7592 deg
Mean anomaly:     333.2186 deg
Mean motion:   14.27381329 rev/day
Decay rate:    1.6329E-005 rev/day^2
Epoch rev:           22082
Checksum:              306

Satellite: PAN SAT
Catalog number: 25520
Epoch time:      103015.40860678
Element set:     633 
Inclination:       28.4590 deg
RA of node:        91.3557 deg
Eccentricity:    0.0005234
Arg of perigee:   341.3553 deg
Mean anomaly:      18.6785 deg
Mean motion:   15.13699711 rev/day
Decay rate:    3.8750E-005 rev/day^2
Epoch rev:           23240
Checksum:              296

Satellite: ISS (ZARYA)
Catalog number: 25544
Epoch time:      103018.19128670
Element set:     597 
Inclination:       51.6359 deg
RA of node:        53.7178 deg
Eccentricity:    0.0005680
Arg of perigee:    46.3349 deg
Mean anomaly:      63.7137 deg
Mean motion:   15.59295584 rev/day
Decay rate:    2.6840E-004 rev/day^2
Epoch rev:           23760
Checksum:              442

